This is the latest recevied weather packets stored in our database for station/object KC2BRB-1. If no packets are shown the sender has not sent any weather packets the latest 10 day(s).
| Time | Temp. | Humidity | Pressure | Rain* | Wind** | Luminosity | Snow |
|---|---|---|---|---|---|---|---|
| 1777666359 | 32.22° C | 46% | 1007 hPa | 0 mm | - | - | - |
| 1777665880 | 32.22° C | 47% | 1007.1 hPa | 0 mm | - | - | - |
| 1777665838 | 32.22° C | 47% | 1007.1 hPa | 0 mm | - | - | - |
| 1777665759 | 32.22° C | 47% | 1007.1 hPa | 0 mm | - | - | - |
| 1777665459 | 32.22° C | 47% | 1007.1 hPa | 0 mm | - | - | - |
| 1777665300 | 32.78° C | 47% | 1007.1 hPa | 0 mm | - | - | - |
| 1777665253 | 32.78° C | 47% | 1007.1 hPa | 0 mm | - | - | - |
| 1777665159 | 32.78° C | 47% | 1007.1 hPa | 0 mm | - | - | - |
| 1777664559 | 33.33° C | 51% | 1007.5 hPa | 0 mm | - | - | - |
| 1777664259 | 33.33° C | 51% | 1007.5 hPa | 0 mm | - | - | - |
| 1777663960 | 32.22° C | 48% | 1007.9 hPa | 0 mm | - | - | - |
| 1777663660 | 32.22° C | 48% | 1007.9 hPa | 0 mm | - | - | - |
| 1777663483 | 32.22° C | 50% | 1007.9 hPa | 0 mm | - | - | - |
| 1777663359 | 32.22° C | 50% | 1007.9 hPa | 0 mm | - | - | - |
| 1777663182 | 32.22° C | 50% | 1007.9 hPa | 0 mm | - | - | - |
| 1777663059 | 32.22° C | 50% | 1007.9 hPa | 0 mm | - | - | - |
| 1777662759 | 32.22° C | 48% | 1008.1 hPa | 0 mm | - | - | - |
| 1777662159 | 31.67° C | 49% | 1008.3 hPa | 0 mm | - | - | - |
| 1777661860 | 31.67° C | 49% | 1008.3 hPa | 0 mm | - | - | - |
| 1777661777 | 32.22° C | 48% | 1008.3 hPa | 0 mm | - | - | - |
| 1777661559 | 32.22° C | 48% | 1008.3 hPa | 0 mm | - | - | - |
| 1777661027 | 32.22° C | 50% | 1008.6 hPa | 0 mm | - | - | - |
| 1777660960 | 32.22° C | 50% | 1008.6 hPa | 0 mm | - | - | - |
| 1777660660 | 32.22° C | 50% | 1008.6 hPa | 0 mm | - | - | - |
| 1777660579 | 31.67° C | 53% | 1008.7 hPa | 0 mm | - | - | - |
* Rain latest hour (hover to see other rain measurements)
** Current wind speed in m/s (hover to see current wind gust speed)